Location: Bovenkerk
(52.2915°N, 4.8336°E)
Time: 00:23:47
(UTC+00:00)

FALCON 9 DEB - Pass Details

Date: 09 April 2020
Orbit: 428 x 442 km, 53.0° (Epoch: 04 June)

Event Time Altitude Azimuth Distance (km) Brightness Sun altitude
Rises 21:03:13 0° 255° (WSW) 2,431 7.3 -20.8°
Reaches altitude 10° 21:05:20 10° 255° (WSW) 1,561 6.3 -21.1°
Enters shadow 21:08:14 59° 252° (WSW) 518 3.5 -21.4°
